Time,TemperatureF,DewpointF,PressureIn,WindDirection,WindDirectionDegrees,WindSpeedMPH,WindSpeedGustMPH,Humidity,HourlyPrecipIn,Conditions,Clouds,dailyrainin,SoftwareType,DateUTC
2013-01-19 00:00:00,40.0,13.0,-100.00,North,-999,-999.0,-999.0,33,0.00,,,-99.99,,2013-01-19 08:00:00,
2013-01-19 00:53:00,40.0,13.0,-100.00,North,-999,-999.0,-999.0,33,0.00,,,-99.99,,2013-01-19 08:53:00,
2013-01-19 01:00:00,40.0,10.0,-100.00,North,-999,-999.0,-999.0,29,0.00,,,-99.99,,2013-01-19 09:00:00,
2013-01-19 02:00:00,40.0,11.0,-100.00,North,-999,-999.0,-999.0,30,0.00,,,-99.99,,2013-01-19 10:00:00,
2013-01-19 04:00:00,39.0,11.0,-100.00,North,-999,-999.0,-999.0,31,0.00,,,-99.99,,2013-01-19 12:00:00,
2013-01-19 05:00:00,39.0,12.0,-100.00,North,-999,-999.0,-999.0,33,0.00,,,-99.99,,2013-01-19 13:00:00,
2013-01-19 06:00:00,39.0,10.0,-100.00,North,-999,-999.0,-999.0,30,0.00,,,-99.99,,2013-01-19 14:00:00,
2013-01-19 07:00:00,40.0,13.0,-100.00,North,-999,-999.0,-999.0,32,0.00,,,-99.99,,2013-01-19 15:00:00,
2013-01-19 08:00:00,40.0,13.0,-100.00,North,-999,-999.0,-999.0,32,0.00,,,-99.99,,2013-01-19 16:00:00,
2013-01-19 10:00:00,47.0,14.0,-100.00,North,-999,-999.0,-999.0,26,0.00,,,-99.99,,2013-01-19 18:00:00,
2013-01-19 11:00:00,52.0,4.0,-100.00,North,-999,-999.0,-999.0,14,0.00,,,-99.99,,2013-01-19 19:00:00,
2013-01-19 12:00:00,52.0,11.0,-100.00,North,-999,-999.0,-999.0,19,0.00,,,-99.99,,2013-01-19 20:00:00,
2013-01-19 13:00:00,53.0,11.0,-100.00,North,-999,-999.0,-999.0,18,0.00,,,-99.99,,2013-01-19 21:00:00,
2013-01-19 14:00:00,53.0,8.0,-100.00,North,-999,-999.0,-999.0,16,0.00,,,-99.99,,2013-01-19 22:00:00,
2013-01-19 15:00:00,49.0,5.0,-100.00,North,-999,-999.0,-999.0,16,0.00,,,-99.99,,2013-01-19 23:00:00,
2013-01-19 16:00:00,45.0,14.0,-100.00,North,-999,-999.0,-999.0,28,0.00,,,-99.99,,2013-01-20 00:00:00,
2013-01-19 17:00:00,41.0,15.0,-100.00,North,-999,-999.0,-999.0,35,0.00,,,-99.99,,2013-01-20 01:00:00,
2013-01-19 18:00:00,40.0,15.0,-100.00,North,-999,-999.0,-999.0,35,0.00,,,-99.99,,2013-01-20 02:00:00,
2013-01-19 19:00:00,40.0,15.0,-100.00,North,-999,-999.0,-999.0,35,0.00,,,-99.99,,2013-01-20 03:00:00,
2013-01-19 20:00:00,40.0,15.0,-100.00,North,-999,-999.0,-999.0,36,0.00,,,-99.99,,2013-01-20 04:00:00,
2013-01-19 21:00:00,39.0,14.0,-100.00,North,-999,-999.0,-999.0,35,0.00,,,-99.99,,2013-01-20 05:00:00,
2013-01-19 23:00:00,38.0,12.0,-100.00,North,-999,-999.0,-999.0,34,0.00,,,-99.99,,2013-01-20 07:00:00,
2013-01-19 23:52:00,38.0,12.0,-100.00,North,-999,-999.0,-999.0,34,0.00,,,-99.99,,2013-01-20 07:52:00,